Satellite-Ground Cal/Val Region Overpasses Predictions

Prediction of Satellite NPP Overpassing Cal/Val Region: PacNW

Region Location: (Latitude: 10.00, Longitude: 139.50) to (Latitude: 22.70, Longitude: 165.60).

Table of predicted overpasses for the next 14.0 days since TLE Epoch: 6/10/2015
Interval Starting Time Starting Location Ending Time Ending Location
1 06/10/2015 15:03:10 ( 22.65, 160.26) 06/10/2015 15:06:45 ( 10.03, 157.26)
2 06/11/2015 02:14:56 ( 19.48, 165.59) 06/11/2015 02:15:50 ( 22.65, 164.81)
3 06/11/2015 03:53:45 ( 10.03, 142.43) 06/11/2015 03:57:15 ( 22.36, 139.51)
4 06/11/2015 14:44:08 ( 22.66, 165.02) 06/11/2015 14:47:43 ( 10.04, 162.02)
5 06/11/2015 16:25:38 ( 22.66, 139.64) 06/11/2015 16:25:47 ( 22.13, 139.51)
6 06/12/2015 03:34:43 ( 10.02, 147.19) 06/12/2015 03:38:18 ( 22.65, 144.19)
7 06/12/2015 16:06:36 ( 22.67, 144.40) 06/12/2015 16:10:11 ( 10.05, 141.41)
8 06/13/2015 03:15:40 ( 10.01, 151.95) 06/13/2015 03:19:16 ( 22.69, 148.94)
9 06/13/2015 15:47:33 ( 22.68, 149.16) 06/13/2015 15:51:08 ( 10.06, 146.16)
10 06/14/2015 02:56:39 ( 10.06, 156.69) 06/14/2015 03:00:14 ( 22.68, 153.70)
11 06/14/2015 15:28:31 ( 22.69, 153.92) 06/14/2015 15:32:07 ( 10.01, 150.91)
12 06/15/2015 02:37:36 ( 10.05, 161.45) 06/15/2015 02:41:11 ( 22.67, 158.45)
13 06/15/2015 15:09:29 ( 22.64, 158.66) 06/15/2015 15:13:04 ( 10.02, 155.67)
14 06/16/2015 02:19:20 ( 12.74, 165.59) 06/16/2015 02:22:09 ( 22.66, 163.21)
15 06/16/2015 04:00:04 ( 10.05, 140.83) 06/16/2015 04:01:41 ( 15.75, 139.51)
16 06/16/2015 14:50:27 ( 22.65, 163.42) 06/16/2015 14:54:02 ( 10.03, 160.43)
17 06/17/2015 03:41:01 ( 10.04, 145.59) 06/17/2015 03:44:36 ( 22.66, 142.59)
18 06/17/2015 14:34:29 ( 11.80, 165.59) 06/17/2015 14:34:59 ( 10.04, 165.18)
19 06/17/2015 16:12:54 ( 22.65, 142.80) 06/17/2015 16:16:29 ( 10.03, 139.81)
20 06/18/2015 03:21:59 ( 10.03, 150.35) 06/18/2015 03:25:34 ( 22.66, 147.35)
21 06/18/2015 15:53:52 ( 22.66, 147.56) 06/18/2015 15:57:27 ( 10.04, 144.57)
22 06/19/2015 03:02:56 ( 10.03, 155.10) 06/19/2015 03:06:31 ( 22.65, 152.11)
23 06/19/2015 15:34:49 ( 22.66, 152.32) 06/19/2015 15:38:24 ( 10.04, 149.32)
24 06/20/2015 02:43:54 ( 10.02, 159.86) 06/20/2015 02:47:29 ( 22.64, 156.87)
25 06/20/2015 15:15:47 ( 22.67, 157.08) 06/20/2015 15:19:22 ( 10.05, 154.08)
26 06/21/2015 02:24:52 ( 10.02, 164.62) 06/21/2015 02:28:28 ( 22.70, 161.61)
27 06/21/2015 14:56:44 ( 22.67, 161.83) 06/21/2015 15:00:19 ( 10.05, 158.84)
28 06/22/2015 03:47:19 ( 10.02, 144.00) 06/22/2015 03:50:54 ( 22.65, 141.01)
29 06/22/2015 14:38:51 ( 18.63, 165.60) 06/22/2015 14:41:17 ( 10.06, 163.60)
30 06/22/2015 16:19:12 ( 22.67, 141.21) 06/22/2015 16:21:12 ( 15.63, 139.51)
31 06/23/2015 03:28:17 ( 10.02, 148.76) 06/23/2015 03:31:52 ( 22.64, 145.76)
32 06/23/2015 16:00:09 ( 22.67, 145.97) 06/23/2015 16:03:44 ( 10.05, 142.98)


NCC Satellite Cal/Val Overpasses Prediction Service
